www.pogodaiklimat.ru
Время
и дата
09:53 30.12
10:13 30.12
10:53 30.12
11:53 30.12
12:53 30.12
13:53 30.12
14:53 30.12
15:03 30.12
15:53 30.12
16:53 30.12
17:53 30.12
18:49 30.12
18:53 30.12
19:53 30.12
20:53 30.12
21:53 30.12
22:01 30.12
22:51 30.12
22:53 30.12
23:03 30.12
23:31 30.12
23:46 30.12
23:53 30.12
00:53 31.12
01:31 31.12
01:53 31.12
02:05 31.12
02:45 31.12
02:53 31.12
02:57 31.12
03:02 31.12
03:53 31.12
04:07 31.12
04:20 31.12
04:53 31.12
05:53 31.12
06:53 31.12
07:53 31.12
08:53 31.12
09:53 31.12
10:53 31.12
11:53 31.12
12:53 31.12
13:53 31.12
14:53 31.12
15:53 31.12
16:53 31.12
17:53 31.12
Ветер
(напр.,м/с)
Видим. Явления Облачность Т
(С)
Тd
(С)
f
(%)
Тe
(С)
Тes
(С)
Комфортность P
(гПа)
Po
(гПа)
Тmin
(С)
Tmax
(С)
R
(мм)
R24
(мм)
S
(см)
В 2 16 км 10/10 660 м -2.8 -4.4 89 -9 -9 1015.1 985.3
В 2 16 км 10/10 690 м -2.8 -4.4 89 -10 -10 985.0
В 2 16 км 8/8 600 м -2.2 -4.4 85 -9 -9 1014.9 985.0
В 2 16 км 8/8 390 м -1.1 -3.9 81 -7 -6 1014.3 984.3
В 2 16 км 8/8 390 м -1.1 -3.9 81 -7 -7 1013.6 983.7 -3.3 -1.1
В 2 16 км 8/8 1110 м -1.1 -3.3 85 -7 -6 1012.7 983.0
В 2 16 км 10/10 690 м -0.6 -3.3 82 -6 -6 1012.3 982.7
В 1 16 км 10/10 600 м -0.6 -3.3 82 -5 -5 982.4
В 2 16 км 10/10 420 м -0.6 -3.3 82 -6 -6 1012.2 982.4
В 2 14 км 10/10 390 м -0.6 -2.8 85 -6 -6 1012.0 982.4
В 2 13 км 10/10 330 м -0.6 -2.2 89 -7 -7 1011.8 982.0
ЮВ 2 10 км дымка 10/10 270 м -1.0 -2.0 93 -7 -7 981.7
ЮВ 2 10 км дымка 10/10 270 м -0.6 -1.7 92 -6 -6 1011.5 981.7 -1.1 -0.6
ЮВ 1 6 км дымка 10/10 240 м -0.6 -1.1 96 -6 -6 1011.8 982.0
ЮВ 1 6 км дымка 10/10 270 м -0.6 -1.1 96 -6 -6 1011.6 982.0
ЮВ 1 5 км слабый снег, дымка 10/10 210 м -0.6 -1.1 96 -5 -5 1011.1 981.4
ЮВ 1 3 км слабый снег, дымка 10/10 210 м -0.6 -1.1 96 -5 -5 981.4
ЮВ 2 4 км дымка 10/10 180 м -1.0 -1.0 100 -7 -7 980.4
ЮВ 2 4 км дымка 10/10 180 м 0.0 0.0 100 -6 -6 1010.2 980.4
ЮВ 2 5 км дымка 10/10 180 м 0.0 0.0 100 -6 -6 980.4
ЮВ 1 4 км дымка 10/10 150 м 0.0 0.0 100 -5 -5 980.1
Ю 1 4 км дымка 10/10 120 м 0.0 0.0 100 -5 -5 980.1
Ю 1 4 км дымка 10/10 120 м 0.0 0.0 100 -5 -5 1009.6 980.1
штиль 0 3 км дымка 10/10 120 м +0.6 +0.6 100 -1 -1 1009.4 979.7 -0.6 +0.6
Ю 1 3 км дымка 10/10 150 м +1.1 +0.6 96 -4 -4 980.1
Ю 1 4 км дымка 10/10 150 м +0.6 +0.6 100 -4 -4 1009.5 980.1
Ю 1 4 км дымка 10/10 180 м +0.6 +0.6 100 -3 -3 979.7
Ю 1 5 км дымка 10/10 420 м +1.1 +1.1 100 -4 -4 979.7
Ю 2 5 км дымка 10/10 300 м +1.7 +1.1 96 -4 -4 1009.3 979.7
Ю 2 5 км дымка 10/10 270 м +1.7 +1.1 96 -4 -4 980.1
Ю 2 6 км дымка 10/10 270 м +1.7 +1.1 96 -4 -4 980.1
ЮЗ 2 6 км дымка 10/10 450 м +2.2 +1.7 96 -3 -3 1009.3 979.7
ЮЗ 2 6 км дымка 10/10 420 м +1.7 +1.1 96 -4 -4 979.7
ЮЗ 2 8 км дымка 10/10 450 м +2.2 +1.1 92 -3 -3 979.4
ЮЗ 1 8 км дымка 10/10 450 м +1.7 +1.1 96 -3 -3 1009.3 979.7
ЮЗ 2 10 км дымка 10/10 510 м +1.7 +0.6 92 -3 -3 1009.7 980.4
ЮЗ 2 16 км 10/10 540 м +2.2 0.0 85 -3 -3 1010.0 980.7 +0.6 +2.2
ЮЗ 1 16 км 10/10 570 м +1.7 0.0 88 -3 -3 1010.0 980.4
З 1 16 км 10/10 510 м +2.2 -0.6 82 -2 -2 1010.6 981.1
Ю 1 16 км 10/10 510 м +1.7 0.0 88 -2 -2 1010.3 980.7
ЮЗ 1 16 км 10/10 510 м +2.2 -0.6 82 -1 -1 1010.8 981.4
ЮЗ 1 16 км 10/10 540 м +2.2 -0.6 82 -2 -2 1010.5 981.1
Ю 2 16 км 10/10 540 м +2.2 -0.6 82 -3 -3 1008.8 979.4 +1.7 +2.2
штиль 0 16 км 8/8 600 м
[Ac]
+2.2 -0.6 82 +1 +2 1008.5 979.1
В 1 16 км 10/10 600 м +3.3 -0.6 76 +1 +1 1007.4 978.1
В 1 14 км 10/10 630 м +2.8 -0.6 78 -1 -1 1006.6 977.4
СВ 2 13 км 10/10 690 м +2.2 0.0 85 -3 -3 1006.2 976.8
СВ 2 14 км 10/10 540 м +2.2 0.0 85 -3 -3 1005.4 976.1
Местоположение метеостанции Gerald R. Ford International Airport: широта 42.8808 долгота -85.5228 высота над уровнем моря 242 м.
В архиве по умолчанию представлена погода в Гранд-Рапидсе за последние 1-2 суток. Обновление информации о фактической погоде в базе происходит ежечасно! Архивные данные за месяц целиком и за предыдущие месяцы Вы можете получить, выбрав интересующий диапазон дат из раскрывающегося списка и нажав кнопку "Ввод!".
Внимание! Архив погоды МЕТАР в базе сайта по станциям, не включенным в климатический монитор, хранится не более 60 дней. Нет смысла пытаться выбрать более раннюю дату.
*Определитесь, кто Вы:
Внимание! Время в таблицах - местное (без учета летнего времени). Для получения всемирного времени необходимо вычесть поправку, которая равна -5 ч.
Смотрите также архив погоды в соседних городах и на ближайших метеорологических станциях:
Партнеры нашего сайта:      
Пояснения к столбцам:
  • Ветер - указаны скорость ветра в м/с - средняя за 10 мин, порывы в срок и между сроками (в фигурных скобках) и направление, откуда дует ветер: С - северный,
  • СВ - северо-восточный, В - восточный, ЮВ - юго-восточный, Ю - южный, ЮЗ - юго-западный, З - западный, СЗ - северо-западный.
  • Видимость - горизонтальная дальность видимости в метрах или километрах. При видимости от 1 до 10 км при отсутствии осадков обычно наблюдается дымка, при ухудшении видимости до 1 км и менее - туман. В сухую погоду видимость может ухудшаться дымом, пылью или мглою.
  • Явления - указаны атмосферные явления, наблюдавшиеся в срок или в последний час перед сроком; фигурными скобками обозначены явления, наблюдавшиеся между сроками (за 1-3 часа до срока); квадратными скобками обозначены град или гололедные отложения с указанием их диаметра в мм.
  • Облачность - указаны через наклонную черту общая и нижняя облачность в баллах и высота нижней границы облаков в метрах; квадратными скобками обозначены формы облаков: Ci - перистые, Cs - перисто-слоистые, Cc - перисто-кучевые, Ac - высококучевые, As - высокослоистые, Sc - слоисто-кучевые, Ns - слоисто-дождевые, Cu - кучевые, Cb - кучево-дождевые. Подробнее классификацию облаков см. в Атласе облаков (PDF).
  • T - Температура воздуха - температура, измеренная на высоте 2 м над землей.
  • Td - Температура точки росы - температура, при понижении до которой содержащийся в воздухе водяной пар достигнет насыщения.
  • f - Относительная влажность воздуха - влажноcть воздуха, измеренная на высоте 2 м над землей.
  • Te - Эффективная температура - температура, которую ощущает одетый по сезону человек в тени. Характеристика душности погоды. При расчете учитывается влияние влажности воздуха и скорости ветра на теплоощущения человека.
  • Tes - Эффективная температура на солнце - температура, которую ощущает человек, с поправкой на солнечный нагрев. Характеристика знойности погоды. Зависит от высоты солнца над горизонтом, облачности и скорости ветра. Ночью, в пасмурную погоду, а также при ветре 12 м/с и более поправка равна нулю.
  • P - Атмосферное давление - приведенное к уровню моря атмосферное давление.
  • Po - Атмосферное давление - измеренное на уровне метеостанции атмосферное давление.
  • Tmin - Минимальная температура - минимум температуры воздуха на высоте 2 м над землей.
  • Tmax - Максимальная температура - максимум температуры воздуха на высоте 2 м над землей.
  • R - Количество осадков - Количество выпавших осадков за период времени, мм. При наведении курсора мыши на число - период времени, за который выпало указанное количество осадков.
  • R24 - Количество осадков - Количество выпавших осадков за 24 часа, мм.
  • S - Снежный покров - Высота снежного покрова, см. При наведении курсора мыши на число - состояние снежного покрова и степень покрытия местности в баллах.